Location: Chervonnoye
(48.6000°N, 34.4000°E)
Time: 07:56:24
(UTC+00:00)

Nadezhda 1 Rocket - Pass Details

Date: 18 April 2021
Orbit: 940 x 1006 km, 83.0° (Epoch: 13 May)

Event Time Altitude Azimuth Distance (km) Brightness Sun altitude
Exits shadow 20:42:13 16° 82° (E) 2,378 5.9 -28.8°
Maximum altitude 20:42:40 16° 77° (ENE) 2,371 6.0 -28.9°
Drops below altitude 10° 20:46:18 10° 42° (NE) 2,786 6.7 -29.0°
Sets 20:49:53 0° 22° (NNE) 3,734 7.8 -29.2°
